• In Uzbekistan
  • List of Countries
  • For 7 days
  • Water Temperature
  • Weather Map
  • Weather Widgets
  • user-avatar
    Login

    Hourly Weather Osh

    Today, 26 May, Tuesday

    Time Temperature Precipitation Wind Pressure Humidity
    00:00 +24°C° 0 mm 2 mps 659 mmHg 35%
    01:00 +23°C° 0 mm 2 mps 659 mmHg 35%
    02:00 +23°C° 0 mm 2 mps 659 mmHg 36%
    03:00 +21°C° 0 mm 2 mps 659 mmHg 35%
    04:00 +21°C° 0 mm 2 mps 659 mmHg 35%
    05:00 +21°C° 0 mm 2 mps 659 mmHg 35%
    06:00 +24°C° 0 mm 2 mps 659 mmHg 32%
    07:00 +26°C° 0 mm 1 mps 660 mmHg 29%
    08:00 +28°C° 0 mm 1 mps 660 mmHg 27%
    09:00 +29°C° 0 mm 1 mps 660 mmHg 26%
    10:00 +30°C° 0 mm 2 mps 660 mmHg 25%
    11:00 +31°C° 0 mm 2 mps 660 mmHg 24%
    12:00 +32°C° 0 mm 2 mps 660 mmHg 23%
    13:00 +34°C° 0 mm 2 mps 660 mmHg 21%
    14:00 +34°C° 0 mm 2 mps 660 mmHg 20%
    15:00 +33°C° 0 mm 1 mps 660 mmHg 20%
    16:00 +33°C° 0 mm 1 mps 659 mmHg 20%
    17:00 +33°C° 0 mm 1 mps 659 mmHg 20%
    18:00 +31°C° 0 mm 1 mps 659 mmHg 24%
    19:00 +29°C° 0 mm 1 mps 659 mmHg 28%
    20:00 +27°C° 0 mm 1 mps 659 mmHg 31%
    21:00 +26°C° 0 mm 2 mps 659 mmHg 32%
    22:00 +26°C° 0 mm 2 mps 659 mmHg 33%
    23:00 +25°C° 0 mm 3 mps 659 mmHg 34%

    Tomorrow, 27 May, Wednesday

    Time Temperature Precipitation Wind Pressure Humidity
    00:00 +25°C° 0 mm 2 mps 658 mmHg 34%
    01:00 +24°C° 0 mm 2 mps 658 mmHg 35%
    02:00 +24°C° 0 mm 2 mps 658 mmHg 35%
    03:00 +23°C° 0 mm 2 mps 658 mmHg 36%
    04:00 +23°C° 0 mm 2 mps 658 mmHg 36%
    05:00 +23°C° 0 mm 2 mps 657 mmHg 37%
    06:00 +25°C° 0 mm 2 mps 658 mmHg 34%
    07:00 +27°C° 0 mm 1 mps 659 mmHg 31%
    08:00 +29°C° 0 mm 1 mps 659 mmHg 28%
    09:00 +30°C° 0 mm 1 mps 659 mmHg 27%
    10:00 +31°C° 0 mm 2 mps 659 mmHg 26%
    11:00 +32°C° 0 mm 2 mps 659 mmHg 25%
    12:00 +32°C° 0 mm 2 mps 659 mmHg 24%
    13:00 +34°C° 0 mm 2 mps 658 mmHg 22%
    14:00 +34°C° 0 mm 2 mps 658 mmHg 21%
    15:00 +34°C° 0 mm 2 mps 658 mmHg 20%
    16:00 +34°C° 0 mm 2 mps 658 mmHg 20%
    17:00 +33°C° 0 mm 1 mps 657 mmHg 19%
    18:00 +31°C° 0 mm 1 mps 657 mmHg 23%
    19:00 +29°C° 0 mm 1 mps 657 mmHg 27%
    20:00 +26°C° 0 mm 1 mps 657 mmHg 31%
    21:00 +26°C° 0.1 mm 2 mps 657 mmHg 33%
    22:00 +25°C° 0.1 mm 2 mps 657 mmHg 35%
    23:00 +24°C° 0.1 mm 3 mps 656 mmHg 36%

    Day after tomorrow, 28 May, Thursday

    Time Temperature Precipitation Wind Pressure Humidity
    00:00 +24°C° 0 mm 3 mps 656 mmHg 37%
    01:00 +23°C° 0 mm 2 mps 656 mmHg 38%
    02:00 +23°C° 0 mm 2 mps 655 mmHg 38%
    03:00 +21°C° 0.2 mm 2 mps 655 mmHg 40%
    04:00 +21°C° 0.2 mm 2 mps 655 mmHg 41%
    05:00 +21°C° 0.2 mm 2 mps 655 mmHg 43%
    06:00 +24°C° 0.5 mm 2 mps 655 mmHg 41%
    07:00 +25°C° 0.5 mm 1 mps 656 mmHg 38%
    08:00 +27°C° 0.5 mm 1 mps 656 mmHg 36%
    09:00 +28°C° 0 mm 2 mps 656 mmHg 34%
    10:00 +29°C° 0 mm 3 mps 656 mmHg 32%
    11:00 +30°C° 0 mm 4 mps 656 mmHg 30%
    12:00 +32°C° 0.2 mm 4 mps 656 mmHg 30%
    13:00 +32°C° 0.2 mm 4 mps 656 mmHg 29%
    14:00 +33°C° 0.2 mm 4 mps 656 mmHg 28%
    15:00 +33°C° 0.2 mm 3 mps 656 mmHg 28%
    16:00 +31°C° 0.2 mm 2 mps 656 mmHg 27%
    17:00 +31°C° 0.2 mm 1 mps 656 mmHg 26%
    18:00 +29°C° 0.1 mm 2 mps 656 mmHg 29%
    19:00 +27°C° 0.1 mm 3 mps 656 mmHg 33%
    20:00 +25°C° 0.1 mm 3 mps 655 mmHg 37%
    21:00 +25°C° 0.4 mm 3 mps 655 mmHg 39%
    22:00 +24°C° 0.4 mm 3 mps 655 mmHg 41%
    23:00 +22°C° 0.4 mm 3 mps 655 mmHg 43%

    29 May, Friday

    Time Temperature Precipitation Wind Pressure Humidity
    00:00 +22°C° 0.1 mm 3 mps 655 mmHg 43%
    01:00 +21°C° 0.1 mm 3 mps 654 mmHg 43%
    02:00 +21°C° 0.1 mm 2 mps 654 mmHg 43%
    03:00 +21°C° 0.1 mm 2 mps 654 mmHg 44%
    04:00 +20°C° 0.1 mm 2 mps 654 mmHg 45%
    05:00 +20°C° 0.1 mm 2 mps 654 mmHg 46%
    06:00 +23°C° 0 mm 2 mps 654 mmHg 43%
    07:00 +25°C° 0 mm 2 mps 655 mmHg 39%
    08:00 +26°C° 0 mm 2 mps 656 mmHg 35%
    09:00 +27°C° 0.1 mm 3 mps 656 mmHg 34%
    10:00 +28°C° 0.1 mm 4 mps 656 mmHg 33%
    11:00 +29°C° 0.1 mm 4 mps 656 mmHg 32%
    12:00 +30°C° 0.1 mm 4 mps 656 mmHg 31%
    13:00 +30°C° 0.1 mm 4 mps 656 mmHg 29%
    14:00 +31°C° 0.1 mm 3 mps 655 mmHg 28%
    15:00 +31°C° 0.1 mm 3 mps 656 mmHg 26%
    16:00 +31°C° 0.1 mm 3 mps 656 mmHg 24%
    17:00 +31°C° 0.1 mm 3 mps 656 mmHg 22%
    18:00 +28°C° 0 mm 3 mps 656 mmHg 25%
    19:00 +26°C° 0 mm 2 mps 655 mmHg 27%
    20:00 +23°C° 0 mm 2 mps 655 mmHg 29%
    21:00 +23°C° 0 mm 2 mps 655 mmHg 31%
    22:00 +22°C° 0 mm 1 mps 655 mmHg 33%
    23:00 +21°C° 0 mm 1 mps 655 mmHg 34%

    30 May, Saturday

    Time Temperature Precipitation Wind Pressure Humidity
    00:00 +21°C° 0 mm 1 mps 655 mmHg 34%
    01:00 +20°C° 0 mm 1 mps 654 mmHg 34%
    02:00 +20°C° 0 mm 1 mps 654 mmHg 34%
    03:00 +20°C° 0 mm 1 mps 654 mmHg 35%
    04:00 +19°C° 0 mm 1 mps 654 mmHg 36%
    05:00 +19°C° 0 mm 1 mps 654 mmHg 37%
    06:00 +21°C° 0 mm 1 mps 654 mmHg 33%
    07:00 +23°C° 0 mm 1 mps 655 mmHg 29%
    08:00 +25°C° 0 mm 1 mps 656 mmHg 26%
    09:00 +26°C° 0 mm 2 mps 656 mmHg 25%
    10:00 +27°C° 0 mm 2 mps 656 mmHg 24%
    11:00 +28°C° 0 mm 2 mps 656 mmHg 24%
    12:00 +29°C° 0 mm 2 mps 656 mmHg 22%
    13:00 +30°C° 0 mm 2 mps 656 mmHg 21%
    14:00 +31°C° 0 mm 2 mps 656 mmHg 19%
    15:00 +31°C° 0 mm 2 mps 656 mmHg 19%
    16:00 +31°C° 0 mm 2 mps 656 mmHg 19%
    17:00 +31°C° 0 mm 2 mps 657 mmHg 18%
    18:00 +29°C° 0 mm 2 mps 657 mmHg 21%
    19:00 +27°C° 0 mm 2 mps 656 mmHg 24%
    20:00 +25°C° 0 mm 2 mps 656 mmHg 26%
    21:00 +24°C° 0 mm 2 mps 656 mmHg 27%
    22:00 +23°C° 0 mm 2 mps 656 mmHg 28%
    23:00 +23°C° 0 mm 2 mps 656 mmHg 29%

    31 May, Sunday

    Time Temperature Precipitation Wind Pressure Humidity
    00:00 +21°C° 0 mm 2 mps 656 mmHg 29%
    01:00 +21°C° 0 mm 2 mps 656 mmHg 29%
    02:00 +20°C° 0 mm 2 mps 655 mmHg 30%
    03:00 +20°C° 0 mm 2 mps 655 mmHg 31%
    04:00 +20°C° 0 mm 2 mps 655 mmHg 32%
    05:00 +19°C° 0 mm 2 mps 655 mmHg 33%
    06:00 +22°C° 0 mm 1 mps 656 mmHg 30%
    07:00 +25°C° 0 mm 1 mps 657 mmHg 26%
    08:00 +25°C° 0 mm 0 mps 657 mmHg 23%
    09:00 +28°C° 0 mm 1 mps 657 mmHg 22%
    10:00 +29°C° 0 mm 2 mps 658 mmHg 22%
    11:00 +30°C° 0 mm 2 mps 658 mmHg 21%
    12:00 +30°C° 0 mm 2 mps 658 mmHg 20%
    13:00 +31°C° 0 mm 2 mps 657 mmHg 19%
    14:00 +32°C° 0 mm 2 mps 657 mmHg 18%
    15:00 +32°C° 0 mm 2 mps 658 mmHg 18%
    16:00 +32°C° 0 mm 2 mps 658 mmHg 17%
    17:00 +32°C° 0 mm 1 mps 658 mmHg 16%
    18:00 +29°C° 0 mm 1 mps 658 mmHg 19%
    19:00 +27°C° 0 mm 1 mps 657 mmHg 22%
    20:00 +25°C° 0 mm 1 mps 657 mmHg 25%
    21:00 +24°C° 0 mm 2 mps 657 mmHg 26%
    22:00 +24°C° 0 mm 2 mps 657 mmHg 27%
    23:00 +23°C° 0 mm 2 mps 657 mmHg 27%
    Show more